TimeMDT,TemperatureF,Dew PointF,Humidity,Sea Level PressureIn,VisibilityMPH,Wind Direction,Wind SpeedMPH,Gust SpeedMPH,PrecipitationIn,Events,Conditions,WindDirDegrees,DateUTC
12:15 AM,42.8,32.0,66,30.13,10.0,NNW,6.9,-,N/A,,Clear,330,2012-10-07 06:15:00
12:35 AM,41.0,32.0,70,30.15,10.0,NW,8.1,-,N/A,,Clear,320,2012-10-07 06:35:00
12:55 AM,41.0,30.2,65,30.15,10.0,NNW,6.9,-,N/A,,Clear,340,2012-10-07 06:55:00
1:15 AM,41.0,30.2,65,30.15,10.0,NW,5.8,-,N/A,,Clear,320,2012-10-07 07:15:00
1:35 AM,41.0,30.2,65,30.14,10.0,Calm,Calm,-,N/A,,Clear,0,2012-10-07 07:35:00
1:55 AM,41.0,30.2,65,30.15,10.0,NW,4.6,-,N/A,,Clear,320,2012-10-07 07:55:00
2:15 AM,39.2,28.4,65,30.15,10.0,NW,5.8,-,N/A,,Clear,320,2012-10-07 08:15:00
2:55 AM,39.2,28.4,65,30.15,10.0,NW,4.6,-,N/A,,Clear,320,2012-10-07 08:55:00
3:15 AM,39.2,28.4,65,30.14,10.0,Calm,Calm,-,N/A,,Clear,0,2012-10-07 09:15:00
3:35 AM,39.2,28.4,65,30.14,10.0,NW,5.8,-,N/A,,Clear,320,2012-10-07 09:35:00
3:55 AM,37.4,28.4,70,30.14,10.0,Calm,Calm,-,N/A,,Clear,0,2012-10-07 09:55:00
4:15 AM,37.4,28.4,70,30.14,10.0,Calm,Calm,-,N/A,,Clear,0,2012-10-07 10:15:00
4:35 AM,37.4,26.6,65,30.15,10.0,Calm,Calm,-,N/A,,Clear,0,2012-10-07 10:35:00
4:55 AM,37.4,26.6,65,30.15,10.0,Calm,Calm,-,N/A,,Clear,0,2012-10-07 10:55:00
5:15 AM,35.6,26.6,70,30.14,10.0,Calm,Calm,-,N/A,,Clear,0,2012-10-07 11:15:00
5:35 AM,35.6,26.6,70,30.14,10.0,Calm,Calm,-,N/A,,Clear,0,2012-10-07 11:35:00
5:50 AM,37.4,26.6,65,30.15,10.0,Calm,Calm,-,N/A,,Partly Cloudy,0,2012-10-07 11:50:00
6:50 AM,37.4,28.4,70,30.16,10.0,North,5.8,-,N/A,,Scattered Clouds,350,2012-10-07 12:50:00
7:50 AM,37.4,28.4,70,30.17,10.0,North,5.8,-,N/A,,Scattered Clouds,350,2012-10-07 13:50:00
8:50 AM,44.6,33.8,66,30.19,10.0,North,10.4,-,N/A,,Scattered Clouds,360,2012-10-07 14:50:00
9:50 AM,44.6,32.0,61,30.20,10.0,NE,8.1,-,N/A,,Partly Cloudy,40,2012-10-07 15:50:00
10:50 AM,46.4,32.0,57,30.19,10.0,Calm,Calm,-,N/A,,Partly Cloudy,0,2012-10-07 16:50:00
11:50 AM,51.8,32.0,47,30.18,10.0,Calm,Calm,-,N/A,,Partly Cloudy,0,2012-10-07 17:50:00
12:50 PM,55.4,32.0,41,30.15,10.0,South,3.5,-,N/A,,Clear,170,2012-10-07 18:50:00
1:50 PM,59.0,28.4,31,30.13,10.0,SW,3.5,-,N/A,,Clear,220,2012-10-07 19:50:00
2:50 PM,62.6,23.0,22,30.10,10.0,Calm,Calm,-,N/A,,Clear,0,2012-10-07 20:50:00
3:50 PM,64.4,19.4,18,30.08,10.0,Calm,Calm,-,N/A,,Clear,0,2012-10-07 21:50:00
4:50 PM,66.2,10.4,11,30.07,10.0,Calm,Calm,-,N/A,,Clear,0,2012-10-07 22:50:00
5:50 PM,64.4,26.6,24,30.07,10.0,SSE,12.7,-,N/A,,Clear,150,2012-10-07 23:50:00
6:50 PM,57.2,24.8,29,30.08,10.0,South,8.1,-,N/A,,Clear,190,2012-10-08 00:50:00
7:50 PM,51.8,24.8,35,30.11,10.0,Calm,Calm,-,N/A,,Clear,0,2012-10-08 01:50:00
8:50 PM,48.2,23.0,37,30.13,10.0,Calm,Calm,-,N/A,,Clear,0,2012-10-08 02:50:00
9:50 PM,48.2,23.0,37,30.15,10.0,Calm,Calm,-,N/A,,Clear,0,2012-10-08 03:50:00
10:15 PM,50.0,23.0,35,30.15,10.0,Calm,Calm,-,N/A,,Clear,0,2012-10-08 04:15:00
10:35 PM,51.8,24.8,35,30.15,10.0,Calm,Calm,-,N/A,,Clear,0,2012-10-08 04:35:00
10:55 PM,50.0,24.8,37,30.15,10.0,Calm,Calm,-,N/A,,Clear,0,2012-10-08 04:55:00
11:15 PM,50.0,24.8,37,30.15,10.0,Calm,Calm,-,N/A,,Clear,0,2012-10-08 05:15:00
11:35 PM,44.6,21.2,39,30.15,10.0,Calm,Calm,-,N/A,,Clear,0,2012-10-08 05:35:00
11:55 PM,44.6,23.0,43,30.14,10.0,Calm,Calm,-,N/A,,Clear,0,2012-10-08 05:55:00